This is the latest recevied weather packets stored in our database for station/object K4PAD. If no packets are shown the sender has not sent any weather packets the latest 10 day(s).
| Time | Temp. | Humidity | Pressure | Rain* | Wind** | Luminosity | Snow |
|---|---|---|---|---|---|---|---|
| 1777755118 | 21.11° C | 83% | 1010.4 hPa | 0 mm | - | 416 W/m² | - |
| 1777754815 | 21.11° C | 84% | 1010.7 hPa | 0 mm | - | 414 W/m² | - |
| 1777754513 | 20.56° C | 84% | 1011 hPa | 0 mm | - | 404 W/m² | - |
| 1777754210 | 21.11° C | 84% | 1010.8 hPa | 0 mm | - | 315 W/m² | - |
| 1777753908 | 21.11° C | 85% | 1010.7 hPa | 0 mm | - | 301 W/m² | - |
| 1777753602 | 20.56° C | 86% | 1010.7 hPa | 0 mm | - | 399 W/m² | - |
| 1777753301 | 20.56° C | 88% | 1010.9 hPa | 0 mm | - | 302 W/m² | - |
| 1777752997 | 20.56° C | 90% | 1011.1 hPa | 0 mm | - | 376 W/m² | - |
| 1777752694 | 20° C | 91% | 1011.3 hPa | 0 mm | - | 299 W/m² | - |
| 1777752389 | 20° C | 91% | 1011.1 hPa | 0 mm | - | 249 W/m² | - |
| 1777752087 | 20° C | 92% | 1011.3 hPa | 0 mm | - | 282 W/m² | - |
| 1777751786 | 19.44° C | 93% | 1011.1 hPa | 0 mm | - | 311 W/m² | - |
| 1777751481 | 19.44° C | 93% | 1011.3 hPa | 0 mm | - | 286 W/m² | - |
| 1777751178 | 19.44° C | 93% | 1011.5 hPa | 0 mm | - | 145 W/m² | - |
| 1777750874 | 19.44° C | 93% | 1011.4 hPa | 0 mm | - | 115 W/m² | - |
| 1777750571 | 19.44° C | 92% | 1011.3 hPa | 0 mm | - | 74 W/m² | - |
| 1777750268 | 19.44° C | 92% | 1011.4 hPa | 0 mm | - | 69 W/m² | - |
| 1777749963 | 20° C | 91% | 1011.4 hPa | 0 mm | - | 70 W/m² | - |
| 1777749661 | 20° C | 91% | 1011.1 hPa | 0 mm | - | 77 W/m² | - |
| 1777749358 | 20.56° C | 91% | 1011.2 hPa | 0 mm | - | 73 W/m² | - |
| 1777749055 | 20.56° C | 91% | 1011.1 hPa | 0 mm | - | 75 W/m² | - |
| 1777748753 | 20.56° C | 91% | 1011 hPa | 0 mm | - | 93 W/m² | - |
| 1777748450 | 20.56° C | 91% | 1011 hPa | 0 mm | - | 127 W/m² | - |
| 1777748144 | 20.56° C | 91% | 1010.9 hPa | 0 mm | - | 138 W/m² | - |
| 1777747842 | 20.56° C | 91% | 1010.8 hPa | 0 mm | - | 135 W/m² | - |
* Rain latest hour (hover to see other rain measurements)
** Current wind speed in m/s (hover to see current wind gust speed)